TimePST,TemperatureF,Dew PointF,Humidity,Sea Level PressureIn,VisibilityMPH,Wind Direction,Wind SpeedMPH,Gust SpeedMPH,PrecipitationIn,Events,Conditions,WindDirDegrees,DateUTC
12:15 AM,19.4,15.8,86,29.93,10.0,Calm,Calm,-,N/A,,Overcast,0,2013-03-07 08:15:00
12:35 AM,19.4,15.8,86,29.92,10.0,Calm,Calm,-,N/A,Snow,Light Snow,0,2013-03-07 08:35:00
12:55 AM,19.4,15.8,86,29.93,10.0,Calm,Calm,-,N/A,,Overcast,0,2013-03-07 08:55:00
1:15 AM,19.4,17.6,93,29.93,10.0,Calm,Calm,-,N/A,,Overcast,0,2013-03-07 09:15:00
1:35 AM,19.4,17.6,93,29.93,8.0,Calm,Calm,-,N/A,Snow,Light Snow,0,2013-03-07 09:35:00
1:55 AM,19.4,17.6,93,29.92,7.0,Calm,Calm,-,N/A,Snow,Light Snow,0,2013-03-07 09:55:00
2:15 AM,19.4,17.6,93,29.91,2.5,NNE,3.5,-,N/A,Snow,Light Snow,20,2013-03-07 10:15:00
2:35 AM,19.4,17.6,93,29.91,9.0,Calm,Calm,-,N/A,Snow,Light Snow,0,2013-03-07 10:35:00
2:55 AM,19.4,17.6,93,29.90,6.0,West,3.5,-,N/A,Snow,Light Snow,280,2013-03-07 10:55:00
3:15 AM,19.4,17.6,93,29.90,9.0,Calm,Calm,-,N/A,Snow,Light Snow,0,2013-03-07 11:15:00
3:35 AM,19.4,17.6,93,29.91,6.0,Calm,Calm,-,N/A,Snow,Light Snow,0,2013-03-07 11:35:00
3:55 AM,19.4,17.6,93,29.90,10.0,SE,3.5,-,N/A,,Overcast,140,2013-03-07 11:55:00
4:15 AM,19.4,17.6,93,29.90,10.0,Calm,Calm,-,N/A,,Overcast,0,2013-03-07 12:15:00
4:35 AM,19.4,17.6,93,29.90,10.0,Calm,Calm,-,N/A,,Overcast,0,2013-03-07 12:35:00
4:55 AM,21.2,19.4,93,29.90,10.0,Calm,Calm,-,N/A,,Overcast,0,2013-03-07 12:55:00
5:15 AM,19.4,17.6,93,29.89,10.0,Calm,Calm,-,N/A,,Overcast,0,2013-03-07 13:15:00
5:35 AM,21.2,19.4,93,29.90,10.0,Calm,Calm,-,N/A,,Overcast,0,2013-03-07 13:35:00
6:55 AM,23.0,19.4,86,29.90,1.0,Calm,Calm,-,N/A,Snow,Light Snow,0,2013-03-07 14:55:00
7:50 AM,23.0,21.2,93,29.90,1.0,Calm,Calm,-,N/A,Snow,Light Snow,0,2013-03-07 15:50:00
9:45 AM,26.6,21.2,80,29.90,3.0,North,3.5,-,N/A,Snow,Light Snow,10,2013-03-07 17:45:00
10:55 AM,30.2,21.2,69,29.89,8.0,NNE,3.5,-,N/A,Snow,Light Snow,20,2013-03-07 18:55:00
11:55 AM,30.2,23.0,75,29.88,10.0,WNW,2.3,-,N/A,,Mostly Cloudy,295,2013-03-07 19:55:00
12:50 PM,32.0,23.0,69,29.86,5.0,SSW,6.9,-,N/A,Snow,Light Snow,200,2013-03-07 20:50:00
1:45 PM,30.2,26.6,86,29.86,1.0,Calm,Calm,-,N/A,Snow,Light Snow,0,2013-03-07 21:45:00
3:45 PM,32.0,26.6,80,29.85,2.0,South,4.6,-,N/A,Snow,Light Snow,170,2013-03-07 23:45:00
3:50 PM,32.0,24.8,75,29.85,10.0,Calm,Calm,-,N/A,,Overcast,0,2013-03-07 23:50:00
4:45 PM,30.2,28.4,93,29.84,6.0,South,3.5,-,N/A,Snow,Light Snow,170,2013-03-08 00:45:00
5:35 PM,30.2,26.6,86,29.85,1.5,SSW,3.5,-,N/A,Snow,Light Snow,200,2013-03-08 01:35:00
5:55 PM,28.4,26.6,93,29.85,1.0,SSE,3.5,-,0.01,Snow,Light Snow,160,2013-03-08 01:55:00
6:15 PM,28.4,26.6,93,29.85,1.8,Calm,Calm,-,N/A,Snow,Light Snow,0,2013-03-08 02:15:00
6:35 PM,28.4,26.6,93,29.85,3.0,Calm,Calm,-,N/A,Snow,Light Snow,0,2013-03-08 02:35:00
6:55 PM,28.4,26.6,93,29.85,3.0,Calm,Calm,-,N/A,Snow,Light Snow,0,2013-03-08 02:55:00
7:15 PM,28.4,26.6,93,29.85,2.5,Calm,Calm,-,N/A,Snow,Light Snow,0,2013-03-08 03:15:00
7:35 PM,28.4,28.4,100,29.85,2.5,Calm,Calm,-,0.01,Snow,Light Snow,0,2013-03-08 03:35:00
7:55 PM,28.4,26.6,93,29.86,2.0,Calm,Calm,-,0.01,Snow,Light Snow,0,2013-03-08 03:55:00
8:15 PM,28.4,28.4,100,29.86,1.8,Calm,Calm,-,N/A,Snow,Light Snow,0,2013-03-08 04:15:00
8:35 PM,28.4,26.6,93,29.86,3.0,Calm,Calm,-,N/A,Snow,Light Snow,0,2013-03-08 04:35:00
8:55 PM,28.4,26.6,93,29.86,5.0,Calm,Calm,-,N/A,Snow,Light Snow,0,2013-03-08 04:55:00
9:15 PM,28.4,26.6,93,29.86,8.0,Calm,Calm,-,N/A,Snow,Light Snow,0,2013-03-08 05:15:00
9:35 PM,28.4,26.6,93,29.86,5.0,Calm,Calm,-,N/A,Snow,Light Snow,0,2013-03-08 05:35:00
9:55 PM,28.4,26.6,93,29.86,5.0,Calm,Calm,-,N/A,,Overcast,0,2013-03-08 05:55:00
10:15 PM,26.6,26.6,100,29.86,0.2,Calm,Calm,-,N/A,Fog,Light Freezing Fog,0,2013-03-08 06:15:00
10:35 PM,26.6,26.6,100,29.86,2.0,Calm,Calm,-,N/A,,Overcast,0,2013-03-08 06:35:00
10:55 PM,24.8,24.8,100,29.86,4.0,Calm,Calm,-,N/A,,Overcast,0,2013-03-08 06:55:00
11:15 PM,26.6,24.8,93,29.85,1.8,Calm,Calm,-,N/A,,Overcast,0,2013-03-08 07:15:00
11:35 PM,26.6,24.8,93,29.85,0.8,Calm,Calm,-,N/A,,Overcast,0,2013-03-08 07:35:00
11:55 PM,26.6,24.8,93,29.85,3.0,Calm,Calm,-,N/A,,Overcast,0,2013-03-08 07:55:00